N2159B EDVI-EDVC

Flight info

Callsign N2159B
Flight time 0h 22m
Altitude 7000
Route TOMKI
Aircraft BE58/L-SDFGRY/S

Departure

Time 2026-04-24 09:36
Airport Höxter-Holzminden Airfield (EDVI)

Arrival

Time 2026-04-24 09:58
Airport Celle-Arloh Airfield (EDVC)
Time Latitude Longitude Altitude Speed Heading
2026-04-24 09:35 51.87212 9.41041 2383 ft 174 kts 30°
2026-04-24 09:36 51.88247 9.42211 2378 ft 177 kts 29°
2026-04-24 09:36 51.89305 9.43402 2376 ft 177 kts 29°
2026-04-24 09:36 51.90387 9.44616 2375 ft 177 kts 28°
2026-04-24 09:36 51.91450 9.45807 2373 ft 177 kts 28°
2026-04-24 09:37 51.92442 9.46932 2377 ft 171 kts 28°
2026-04-24 09:37 51.93438 9.48065 2284 ft 172 kts 28°
2026-04-24 09:37 51.94453 9.49218 2263 ft 169 kts 30°
2026-04-24 09:37 51.95415 9.50305 2265 ft 166 kts 29°
2026-04-24 09:38 51.96360 9.51375 2284 ft 166 kts 29°
2026-04-24 09:38 51.97308 9.52449 2296 ft 167 kts 29°
2026-04-24 09:38 51.98268 9.53529 2288 ft 168 kts 29°
2026-04-24 09:38 51.99220 9.54603 2268 ft 167 kts 29°
2026-04-24 09:39 52.00177 9.55692 2283 ft 166 kts 29°
2026-04-24 09:39 52.01153 9.56652 2286 ft 165 kts 23°
2026-04-24 09:39 52.02169 9.57552 2285 ft 165 kts 22°
2026-04-24 09:39 52.03174 9.58416 2283 ft 165 kts 22°
2026-04-24 09:40 52.04193 9.59287 2279 ft 165 kts 22°
2026-04-24 09:40 52.05220 9.60161 2280 ft 165 kts 22°
2026-04-24 09:40 52.06234 9.61014 2281 ft 165 kts 22°
2026-04-24 09:40 52.07256 9.61876 2289 ft 166 kts 22°
2026-04-24 09:41 52.08279 9.62735 2283 ft 166 kts 22°
2026-04-24 09:41 52.09298 9.63596 2280 ft 166 kts 21°
2026-04-24 09:41 52.10306 9.64449 2272 ft 165 kts 22°
2026-04-24 09:41 52.11081 9.65107 2270 ft 165 kts 22°
2026-04-24 09:42 52.12174 9.66042 2204 ft 166 kts 22°
2026-04-24 09:42 52.13129 9.66853 2049 ft 173 kts 22°
2026-04-24 09:42 52.14267 9.67733 1877 ft 177 kts 21°
2026-04-24 09:42 52.15415 9.68601 1720 ft 180 kts 21°
2026-04-24 09:43 52.16559 9.69445 1567 ft 181 kts 18°
2026-04-24 09:43 52.17751 9.70151 1419 ft 181 kts 15°
2026-04-24 09:43 52.18971 9.70843 1259 ft 182 kts 15°
2026-04-24 09:43 52.20177 9.71528 1112 ft 182 kts 15°
2026-04-24 09:44 52.21415 9.72088 1011 ft 177 kts
2026-04-24 09:44 52.22631 9.72113 1023 ft 171 kts
2026-04-24 09:44 52.23788 9.72554 1072 ft 167 kts 14°
2026-04-24 09:44 52.24881 9.73238 1272 ft 158 kts 18°
2026-04-24 09:45 52.25872 9.73943 1446 ft 153 kts 19°
2026-04-24 09:45 52.26876 9.74684 1471 ft 159 kts 20°
2026-04-24 09:45 52.27947 9.75508 1465 ft 163 kts 21°
2026-04-24 09:45 52.28959 9.76304 1463 ft 166 kts 20°
2026-04-24 09:46 52.30065 9.77185 1461 ft 167 kts 21°
2026-04-24 09:46 52.31160 9.78066 1461 ft 167 kts 21°
2026-04-24 09:46 52.32109 9.79065 1456 ft 171 kts 37°
2026-04-24 09:46 52.33032 9.80495 1457 ft 172 kts 39°
2026-04-24 09:47 52.33913 9.81888 1459 ft 172 kts 39°
2026-04-24 09:47 52.34739 9.83192 1461 ft 172 kts 39°
2026-04-24 09:47 52.35649 9.84632 1458 ft 172 kts 39°
2026-04-24 09:47 52.36537 9.86040 1458 ft 172 kts 39°
2026-04-24 09:48 52.37402 9.87405 1458 ft 172 kts 39°
2026-04-24 09:48 52.38294 9.88810 1453 ft 172 kts 39°
2026-04-24 09:48 52.39167 9.90181 1452 ft 171 kts 38°
2026-04-24 09:48 52.40034 9.91548 1452 ft 171 kts 38°
2026-04-24 09:49 52.40986 9.92771 1465 ft 167 kts 25°
2026-04-24 09:49 52.42020 9.93735 1456 ft 167 kts 23°
2026-04-24 09:49 52.43034 9.94667 1453 ft 167 kts 23°
2026-04-24 09:49 52.44087 9.95643 1453 ft 167 kts 23°
2026-04-24 09:50 52.45083 9.96569 1453 ft 167 kts 22°
2026-04-24 09:50 52.46111 9.97531 1446 ft 167 kts 22°
2026-04-24 09:50 52.47160 9.98519 1444 ft 166 kts 22°
2026-04-24 09:50 52.48170 9.99471 1444 ft 166 kts 22°
2026-04-24 09:51 52.49209 10.00443 1440 ft 166 kts 22°
2026-04-24 09:51 52.50244 10.01404 1436 ft 165 kts 21°
2026-04-24 09:51 52.51253 10.02352 1451 ft 166 kts 25°
2026-04-24 09:51 52.52303 10.03295 1453 ft 168 kts 25°
2026-04-24 09:52 52.53357 10.04236 1451 ft 169 kts 25°
2026-04-24 09:52 52.54410 10.05178 1448 ft 169 kts 25°
2026-04-24 09:52 52.55554 10.05909 1449 ft 166 kts
2026-04-24 09:52 52.56702 10.06042 1450 ft 164 kts 358°
2026-04-24 09:53 52.57889 10.06115 1445 ft 164 kts 357°
2026-04-24 09:53 52.59105 10.06189 1444 ft 164 kts 357°
2026-04-24 09:53 52.60239 10.06265 1445 ft 163 kts 357°
2026-04-24 09:53 52.61447 10.06352 1444 ft 163 kts 357°
2026-04-24 09:54 52.62602 10.06444 1439 ft 156 kts 357°
2026-04-24 09:54 52.63641 10.06497 1442 ft 149 kts 350°
2026-04-24 09:54 52.64682 10.06129 1409 ft 144 kts 341°
2026-04-24 09:54 52.65623 10.05508 1362 ft 141 kts 328°
2026-04-24 09:55 52.66478 10.04699 1313 ft 141 kts 327°
2026-04-24 09:55 52.67384 10.03829 1256 ft 141 kts 327°
2026-04-24 09:55 52.68323 10.03145 1180 ft 145 kts 349°
2026-04-24 09:55 52.69375 10.03241 1121 ft 147 kts
2026-04-24 09:56 52.70441 10.03477 1057 ft 144 kts
2026-04-24 09:56 52.71099 10.04675 942 ft 145 kts 79°
2026-04-24 09:56 52.71117 10.06381 834 ft 140 kts 93°
2026-04-24 09:56 52.70939 10.07994 782 ft 135 kts 102°
2026-04-24 09:57 52.70558 10.09420 805 ft 127 kts 120°
2026-04-24 09:57 52.69818 10.09894 793 ft 111 kts 206°
2026-04-24 09:57 52.69117 10.09199 763 ft 105 kts 216°
2026-04-24 09:57 52.68498 10.08545 645 ft 103 kts 214°
2026-04-24 09:58 52.67815 10.08870 508 ft 110 kts 122°
2026-04-24 09:58 52.67910 10.09894 433 ft 94 kts 31°
2026-04-24 09:58 52.68430 10.10667 224 ft 97 kts 39°
2026-04-24 09:58 52.68824 10.11276 202 ft 46 kts 41°
2026-04-24 09:59 52.68894 10.11422 202 ft 10 kts 222°
2026-04-24 09:59 52.68835 10.11443 202 ft 17 kts 125°
2026-04-24 09:59 52.68785 10.11540 201 ft 1 kts 230°
2026-04-24 09:59 52.68785 10.11539 201 ft 0 kts 231°